Temp
73 78 82 83 83 83 83 83 83 83 83 83 83 83 83 83 84 84 84 84 84 84 84 84 84 84 84 84 84 84 84 83 83 83 83 83 83 82 82 82 83 82 83
77 80 82 83 83 83 83 83 83 83 83 83 83 83 83 84 84 84 84 84 84 84 84 84 84 84 83 84 84 84 84 83 84 84 84 84 84 83 83 83 83 83 83
79 80 82 82 83 83 83 83 83 83 83 83 83 83 83 83 84 84 84 84 84 84 84 84 84 84 83 83 84 84 83 80 84 84 82 76 81 84 84 84 84 83 83
79 78 80 82 83 83 83 83 83 83 83 83 83 83 84 84 84 84 84 84 84 84 84 84 84 84 84 83 83 83 82 81 81 81 78 80 83 84 84 84 83 83 82
78 78 80 82 83 83 83 83 83 83 83 83 83 83 84 84 84 84 84 84 84 84 84 84 84 83 83 83 83 82 82 82 82 82 77 76 77 83 83 83 83 83 82
78 80 82 83 83 83 83 83 83 83 83 83 84 83 84 84 84 84 84 84 84 84 84 84 84 83 83 83 83 83 83 82 84 79 78 77 75 83 83 83 83 83 82
77 79 80 82 83 83 83 83 83 83 83 83 84 83 83 83 84 84 84 84 84 84 84 84 84 84 84 84 84 84 83 84 81 78 78 77 75 82 83 83 83 83 82
77 78 80 82 83 83 83 83 83 83 83 83 83 83 83 83 83 83 83 84 84 84 84 84 84 84 84 84 83 82 83 81 80 78 77 77 78 82 83 83 82 82 82
79 77 76 77 81 83 83 83 83 83 83 83 83 83 83 83 83 83 83 83 84 84 84 84 84 84 84 84 80 82 82 81 74 75 81 77 80 82 83 82 82 82 82
78 76 73 74 75 76 78 83 83 83 83 83 83 83 83 84 84 84 82 82 84 84 84 84 84 84 83 82 81 83 83 81 73 75 77 77 80 82 83 82 82 82 82
77 75 75 74 72 73 75 80 82 83 83 84 83 84 82 75 77 79 82 83 84 84 85 84 84 84 83 83 82 81 83 74 73 73 75 80 80 82 83 82 82 82 82
74 75 76 74 72 71 81 75 74 77 76 76 76 75 75 75 75 82 82 84 82 81 81 80 78 83 77 78 75 80 74 75 74 76 74 79 80 82 83 82 81 81 82
77 78 77 74 73 72 76 72 73 74 74 74 72 73 74 76 72 72 73 73 72 77 73 76 77 75 73 76 74 71 73 75 75 76 78 79 81 82 83 82 81 81 82
78 80 79 77 75 73 73 74 75 75 75 73 73 73 72 72 71 70 71 73 72 72 72 73 74 73 72 74 77 72 73 74 75 75 75 79 81 82 83 82 82 82 81
80 81 80 79 76 74 74 73 73 74 76 75 73 72 72 72 69 70 70 71 71 72 71 71 73 72 72 75 75 75 75 76 75 75 72 80 82 81 82 82 82 82 82
83 78 79 79 76 76 75 75 76 76 76 76 74 76 71 72 72 71 70 70 71 72 71 69 72 74 73 77 76 75 76 76 78 78 73 74 82 81 82 82 82 82 82
80 78 80 78 79 77 77 77 76 76 76 77 78 75 75 73 73 72 70 69 71 71 71 69 70 75 72 74 77 80 76 78 77 78 75 76 81 82 81 82 82 82 82
80 79 79 86 79 78 77 77 78 78 76 78 78 77 78 77 76 74 70 70 72 72 72 71 70 70 72 74 76 75 77 78 79 80 80 75 81 81 80 81 81 81 82
81 79 78 78 78 78 77 76 77 80 76 78 79 78 79 80 78 77 73 72 72 73 73 73 74 73 73 73 78 75 74 75 77 82 80 79 80 80 75 80 81 81 82
82 81 79 78 77 78 76 75 76 76 76 79 77 78 80 80 82 76 78 77 73 71 71 74 75 75 74 74 80 77 74 74 73 74 77 79 80 81 79 79 78 80 81
82 79 78 77 76 74 72 72 73 75 75 77 77 81 80 80 80 74 74 74 73 73 69 73 74 74 71 71 71 71 72 75 74 73 74 73 77 79 77 82 77 75 76
81 80 76 79 75 76 74 73 74 74 75 76 76 75 77 76 76 75 74 74 73 70 72 72 72 70 70 70 68 68 66 71 71 73 73 75 76 73 75 79 77 74 73
81 79 78 79 77 76 76 74 73 75 73 73 72 72 73 74 75 75 73 73 73 72 71 71 71 69 67 69 70 68 64 63 65 70 71 72 73 74 73 75 73 72 70
82 83 81 79 79 78 78 75 73 72 69 69 70 72 71 72 73 73 73 73 72 71 71 70 71 69 69 67 68 71 69 68 62 63 69 72 72 75 73 73 72 73 71
82 83 82 79 79 79 75 74 71 71 71 70 70 71 70 70 71 72 71 70 69 68 68 70 69 69 67 64 63 63 64 65 64 63 62 64 67 68 71 73 71 69 70
80 81 82 78 73 74 73 72 71 69 69 68 69 70 69 68 68 67 67 66 65 66 67 68 68 67 65 65 64 63 63 62 61 61 60 60 60 64 67 70 70 68 69
MSLP
1015.43 1015.06 1014.95 1015.03 1015.01 1015.04 1015.07 1015.26 1015.38 1015.48 1015.60 1015.68 1015.75 1015.78 1015.93 1016.02 1016.20 1016.26 1016.35 1016.44 1016.57 1016.73 1016.83 1016.93 1016.98 1017.07 1017.05 1017.07 1017.07 1017.06 1017.11 1017.24 1017.31 1017.33 1017.53 1017.68 1017.75 1017.93 1018.05 1018.20 1018.38 1018.68 1018.67
1014.87 1015.05 1015.04 1015.04 1015.08 1015.22 1015.29 1015.46 1015.64 1015.80 1015.93 1015.97 1016.04 1016.02 1016.13 1016.29 1016.40 1016.52 1016.59 1016.79 1016.94 1017.15 1017.26 1017.27 1017.34 1017.34 1017.29 1017.38 1017.46 1017.37 1017.54 1017.62 1017.71 1017.74 1017.73 1017.79 1017.90 1018.13 1018.35 1018.44 1018.62 1018.91 1019.02
1014.92 1015.04 1015.15 1015.21 1015.28 1015.41 1015.49 1015.65 1015.90 1016.10 1016.19 1016.25 1016.38 1016.40 1016.55 1016.75 1016.87 1017.01 1017.10 1017.21 1017.32 1017.51 1017.51 1017.66 1017.61 1017.57 1017.45 1017.64 1017.82 1017.91 1017.99 1018.07 1017.94 1018.04 1018.12 1018.25 1018.05 1018.21 1018.47 1018.65 1018.76 1018.96 1019.25
1014.76 1015.08 1015.24 1015.36 1015.49 1015.62 1015.75 1015.95 1016.18 1016.27 1016.36 1016.54 1016.68 1016.74 1016.92 1017.13 1017.24 1017.42 1017.52 1017.74 1017.82 1017.81 1017.86 1017.91 1017.95 1018.04 1018.04 1018.08 1018.20 1018.25 1018.36 1018.54 1018.27 1018.33 1018.50 1018.45 1018.30 1018.43 1018.74 1018.93 1018.89 1019.02 1019.40
1014.87 1015.09 1015.29 1015.51 1015.68 1015.85 1016.01 1016.20 1016.32 1016.42 1016.56 1016.79 1016.89 1016.97 1017.21 1017.35 1017.53 1017.68 1017.83 1017.98 1017.99 1018.00 1018.13 1018.16 1018.28 1018.36 1018.39 1018.38 1018.48 1018.47 1018.59 1018.75 1018.79 1018.54 1018.71 1018.65 1018.71 1018.74 1018.97 1019.20 1019.27 1019.26 1019.48
1014.91 1015.12 1015.31 1015.58 1015.83 1016.00 1016.19 1016.42 1016.57 1016.65 1016.83 1017.05 1017.14 1017.28 1017.43 1017.60 1017.74 1017.96 1018.13 1018.21 1018.19 1018.16 1018.28 1018.37 1018.50 1018.57 1018.74 1018.76 1018.64 1018.48 1018.47 1018.30 1018.31 1018.50 1018.59 1018.74 1019.01 1018.99 1019.08 1019.24 1019.42 1019.41 1019.45
1015.05 1015.13 1015.36 1015.65 1015.97 1016.21 1016.38 1016.48 1016.67 1016.87 1017.03 1017.24 1017.40 1017.61 1017.89 1018.02 1018.17 1018.36 1018.57 1018.66 1018.65 1018.66 1018.65 1018.72 1018.68 1018.89 1018.96 1018.91 1018.79 1018.64 1018.46 1018.20 1018.09 1018.19 1018.32 1018.75 1019.07 1019.22 1019.09 1019.18 1019.39 1019.63 1019.69
1015.09 1015.30 1015.49 1015.85 1016.15 1016.33 1016.42 1016.61 1016.82 1017.05 1017.35 1017.55 1017.70 1017.88 1018.04 1018.21 1018.42 1018.73 1018.90 1018.93 1018.85 1018.83 1018.82 1018.95 1019.09 1019.22 1019.01 1018.96 1018.71 1018.59 1018.46 1018.60 1018.37 1018.25 1018.26 1018.60 1018.93 1019.19 1019.07 1019.17 1019.36 1019.64 1019.79
1015.15 1015.49 1015.84 1016.03 1016.17 1016.26 1016.44 1016.64 1016.97 1017.33 1017.59 1017.74 1017.91 1017.87 1017.97 1018.19 1018.37 1018.55 1018.75 1018.87 1018.91 1018.99 1019.09 1019.12 1019.33 1019.30 1019.04 1019.06 1018.69 1018.48 1018.44 1018.31 1018.50 1018.33 1018.33 1018.61 1018.90 1019.07 1019.12 1019.21 1019.30 1019.56 1019.78
1015.41 1015.66 1016.06 1016.19 1016.16 1016.38 1016.59 1016.92 1017.18 1017.43 1017.47 1017.55 1017.60 1017.71 1017.91 1018.19 1018.56 1018.89 1019.04 1019.10 1019.20 1019.25 1019.25 1019.20 1019.44 1019.62 1019.29 1019.06 1018.65 1018.30 1017.89 1018.10 1018.17 1018.29 1018.43 1018.75 1018.91 1018.97 1018.95 1019.07 1019.18 1019.43 1019.62
1015.79 1015.99 1015.94 1016.08 1016.31 1016.50 1016.81 1017.09 1017.38 1017.56 1017.59 1017.65 1017.70 1017.89 1018.23 1018.64 1018.89 1018.68 1018.93 1019.06 1018.97 1018.92 1018.98 1018.81 1018.87 1019.32 1019.48 1019.04 1018.44 1017.69 1017.84 1017.84 1017.91 1017.98 1018.34 1018.58 1018.78 1018.78 1018.92 1018.94 1019.22 1019.29 1019.45
1015.82 1015.98 1015.94 1015.94 1016.24 1016.72 1016.71 1017.12 1017.43 1017.47 1017.61 1017.85 1018.22 1018.53 1018.70 1018.88 1018.83 1018.77 1018.83 1018.97 1018.94 1018.97 1018.92 1018.85 1018.73 1018.55 1019.41 1019.01 1018.57 1018.01 1017.05 1017.17 1017.38 1017.44 1017.77 1018.14 1018.47 1018.58 1018.84 1018.71 1019.06 1019.14 1019.17
1015.39 1015.67 1015.90 1015.98 1016.18 1016.52 1016.60 1017.17 1017.33 1017.42 1017.89 1018.23 1018.52 1018.56 1018.42 1018.43 1018.69 1018.79 1018.89 1018.93 1019.09 1018.94 1018.65 1018.35 1018.34 1018.43 1019.54 1019.28 1019.08 1018.64 1017.68 1017.34 1017.18 1017.36 1017.58 1017.76 1018.04 1018.31 1018.46 1018.54 1018.66 1018.84 1018.84
1015.27 1015.27 1015.64 1015.66 1016.02 1016.32 1016.60 1016.82 1016.92 1017.40 1017.75 1018.16 1018.35 1018.26 1018.20 1018.61 1018.97 1019.16 1019.22 1019.05 1019.00 1018.63 1018.35 1018.02 1018.11 1018.49 1018.32 1018.98 1018.80 1018.35 1018.09 1017.74 1017.34 1017.07 1017.21 1017.48 1017.66 1018.05 1018.17 1018.31 1018.35 1018.51 1018.52
1014.82 1015.06 1015.49 1015.71 1015.94 1016.20 1016.53 1016.83 1017.06 1017.24 1017.62 1017.83 1017.81 1018.16 1017.96 1018.25 1019.04 1018.89 1018.74 1018.62 1018.83 1018.55 1018.66 1018.51 1018.30 1018.24 1017.98 1017.80 1018.47 1018.23 1018.24 1017.30 1017.37 1017.01 1016.93 1017.11 1017.37 1017.51 1017.67 1017.82 1017.96 1018.20 1018.33
1014.32 1014.90 1015.34 1015.50 1015.71 1016.00 1016.30 1016.44 1016.59 1016.85 1017.52 1017.54 1017.74 1017.88 1017.70 1018.04 1018.05 1017.88 1018.23 1018.56 1018.15 1018.58 1018.23 1018.64 1018.58 1018.63 1018.28 1017.72 1017.74 1018.10 1017.59 1017.38 1017.17 1017.03 1017.78 1017.01 1016.81 1017.02 1017.12 1017.34 1017.67 1017.88 1017.93
1014.12 1014.58 1015.21 1015.48 1015.28 1015.90 1016.05 1015.97 1016.12 1016.55 1017.08 1017.06 1017.05 1017.61 1017.30 1017.76 1018.00 1017.79 1018.51 1018.87 1018.51 1019.19 1019.07 1019.46 1019.11 1018.76 1018.56 1018.14 1017.31 1017.15 1017.51 1017.03 1016.87 1016.52 1016.68 1016.43 1016.77 1016.61 1016.48 1016.83 1017.13 1017.39 1017.63
1013.94 1014.48 1014.93 1015.19 1015.54 1015.77 1015.85 1015.90 1016.28 1016.22 1016.58 1016.69 1016.70 1017.01 1017.39 1017.57 1017.72 1018.02 1018.77 1018.65 1018.94 1019.07 1019.18 1019.29 1019.35 1019.13 1018.46 1017.68 1017.56 1017.47 1016.86 1016.36 1016.32 1015.68 1015.82 1016.42 1016.32 1016.50 1016.91 1016.88 1016.93 1017.00 1017.44
1013.32 1013.99 1014.66 1014.98 1015.25 1015.52 1015.80 1015.95 1015.96 1015.97 1016.46 1016.54 1016.79 1016.85 1016.96 1017.48 1017.73 1018.08 1018.49 1018.36 1018.82 1019.08 1019.11 1018.89 1018.94 1018.65 1018.41 1018.21 1017.88 1017.41 1016.81 1016.67 1016.43 1015.78 1015.69 1015.75 1015.79 1015.89 1015.86 1016.07 1016.26 1017.13 1017.08
1013.11 1013.65 1014.29 1014.85 1015.15 1015.21 1015.50 1015.97 1016.02 1015.99 1016.33 1016.52 1016.81 1016.63 1016.60 1016.83 1016.83 1017.47 1017.67 1017.81 1018.21 1018.75 1018.95 1018.76 1018.67 1018.60 1018.47 1018.01 1017.68 1017.72 1017.02 1016.77 1016.57 1016.53 1016.07 1015.50 1015.64 1014.99 1015.22 1015.64 1015.97 1016.23 1015.82
1012.97 1013.62 1014.22 1014.85 1015.12 1015.47 1015.80 1016.21 1016.31 1016.37 1016.22 1016.24 1016.40 1015.94 1015.98 1016.21 1016.61 1017.20 1017.55 1017.59 1017.56 1017.82 1018.03 1018.18 1018.27 1018.56 1018.73 1018.34 1017.98 1017.91 1017.75 1017.31 1016.67 1016.29 1015.94 1016.06 1015.71 1015.39 1015.08 1015.47 1015.61 1016.15 1016.18
1012.52 1013.15 1013.91 1014.43 1014.95 1015.42 1015.74 1016.03 1016.10 1016.15 1016.28 1016.28 1016.00 1016.18 1016.38 1016.78 1017.07 1017.51 1017.63 1017.76 1017.59 1017.70 1017.88 1017.94 1018.07 1018.53 1018.63 1018.45 1018.35 1018.21 1017.95 1017.83 1017.36 1016.82 1016.54 1016.47 1016.11 1015.61 1014.90 1015.13 1015.89 1016.30 1016.80
1012.12 1012.66 1013.08 1013.63 1014.43 1015.07 1015.45 1015.75 1016.21 1016.44 1016.61 1016.71 1016.89 1016.94 1016.87 1016.91 1017.27 1017.39 1017.82 1017.76 1017.68 1017.71 1017.78 1018.04 1018.19 1018.39 1018.71 1018.52 1018.23 1018.12 1018.25 1018.08 1018.16 1017.67 1017.43 1017.02 1016.65 1016.26 1016.07 1016.17 1016.55 1017.21 1017.67
1011.31 1011.98 1012.53 1013.15 1013.73 1014.35 1014.76 1015.53 1016.12 1016.47 1017.21 1017.45 1017.26 1017.21 1017.02 1016.77 1016.89 1017.03 1017.21 1017.01 1017.15 1017.45 1017.99 1018.32 1018.40 1018.35 1018.52 1018.70 1018.60 1018.18 1018.00 1018.11 1018.46 1018.35 1017.92 1018.01 1017.38 1016.92 1017.06 1017.14 1017.51 1017.92 1018.16
1010.89 1011.59 1011.86 1012.66 1013.46 1014.28 1015.08 1015.66 1016.17 1016.72 1016.72 1016.83 1016.83 1016.83 1016.87 1017.05 1016.84 1017.04 1017.24 1017.88 1017.97 1018.37 1018.58 1018.38 1018.49 1018.72 1018.75 1018.91 1018.87 1018.98 1018.84 1018.87 1018.82 1018.83 1018.90 1018.91 1018.59 1018.03 1017.83 1017.92 1018.22 1018.56 1018.56
1010.55 1011.40 1012.42 1012.87 1013.69 1014.21 1014.66 1015.43 1015.97 1016.43 1016.76 1016.74 1016.77 1017.01 1017.45 1017.66 1017.63 1017.49 1017.32 1017.70 1018.12 1018.13 1018.12 1018.48 1018.56 1018.89 1019.15 1019.17 1019.13 1018.87 1019.20 1019.34 1019.63 1019.54 1019.50 1019.65 1019.67 1019.23 1018.92 1018.81 1018.68 1018.89 1018.87
Wind_Speed
4 6 11 11 12 12 11 10 11 11 12 12 13 14 15 16 15 16 15 15 15 14 14 13 13 13 13 13 13 13 13 13 14 14 12 13 15 14 14 18 17 13 17
10 7 12 12 13 12 12 12 11 11 12 11 12 14 14 14 14 15 14 14 14 13 14 12 12 12 11 11 12 12 12 12 13 13 12 10 12 15 16 18 18 13 16
11 9 10 13 13 13 12 12 12 12 12 11 11 13 13 13 13 13 13 13 13 12 12 11 11 11 10 11 10 11 11 7 11 12 10 3 5 14 15 16 18 16 14
12 7 8 12 12 13 13 12 12 12 12 12 11 12 11 12 12 12 12 12 11 11 11 10 9 9 9 8 9 8 8 6 8 7 4 2 7 14 15 16 16 16 15
11 8 10 14 13 13 12 12 12 13 12 12 12 11 11 12 12 12 12 12 10 10 9 8 7 6 7 6 6 5 4 4 2 2 3 2 3 8 13 15 15 16 16
12 10 13 14 14 13 13 13 13 12 12 10 11 11 11 11 10 12 11 11 9 8 7 5 4 4 4 5 5 6 5 4 4 3 3 5 4 9 13 13 12 13 13
10 10 11 14 14 14 13 12 12 12 12 11 11 10 9 9 8 9 9 8 7 5 3 2 2 3 4 5 5 6 8 8 5 4 4 6 6 10 13 13 12 11 12
12 8 10 14 14 13 13 13 12 12 12 11 11 9 8 8 8 7 6 5 3 3 1 2 3 3 4 5 6 5 5 8 3 3 4 5 10 12 14 13 13 13 13
10 7 6 7 11 13 13 13 12 12 11 10 9 9 9 8 8 8 6 5 4 3 3 4 4 5 6 6 3 2 3 3 1 1 4 4 11 14 14 14 14 13 12
10 8 7 6 5 6 6 11 12 11 12 11 11 10 8 8 6 4 2 1 2 3 4 6 6 4 5 1 8 6 9 2 4 2 1 4 12 15 15 14 13 13 12
7 6 7 7 6 6 5 6 8 10 10 10 9 8 5 3 4 2 1 2 2 5 7 9 8 5 5 6 8 13 5 4 5 3 1 6 14 15 15 13 13 13 13
9 7 8 8 7 6 6 5 5 5 4 3 4 5 4 3 1 2 2 2 6 6 4 6 8 8 5 3 4 8 6 4 2 3 3 6 15 16 15 14 13 14 14
13 9 9 7 7 7 5 4 3 3 3 3 6 4 3 4 4 4 3 3 2 1 3 5 4 2 4 3 4 5 8 5 2 1 2 8 15 16 17 16 16 15 15
14 12 11 9 9 7 4 5 5 4 4 4 5 7 5 4 4 3 2 3 2 3 5 5 2 3 2 7 10 9 9 8 3 2 5 12 15 17 18 16 16 16 16
15 13 12 10 8 6 6 3 2 4 4 6 6 4 5 5 5 3 1 1 3 4 3 5 4 4 6 4 7 9 8 14 9 3 3 13 17 19 19 19 18 17 16
15 9 11 12 7 7 6 7 5 5 5 6 5 6 6 7 4 5 3 2 4 2 5 5 5 5 7 5 2 7 10 11 11 8 5 5 19 21 20 19 18 18 18
11 10 13 11 8 8 8 7 4 4 5 6 5 7 8 8 7 5 2 5 4 2 2 4 8 5 3 6 7 3 6 9 9 10 7 8 9 21 21 18 18 19 18
12 12 9 9 8 7 6 4 4 4 5 4 4 4 9 9 10 7 5 5 1 4 2 5 5 4 4 3 2 2 3 5 5 4 6 5 6 6 9 13 15 17 15
15 12 9 8 8 7 6 4 4 5 3 3 3 4 4 7 12 9 7 7 7 5 4 4 4 2 2 3 3 3 3 3 4 5 5 4 5 5 5 9 17 8 12
13 12 10 8 8 7 5 4 1 2 2 4 4 6 7 5 7 7 8 8 7 6 3 2 1 2 2 3 1 1 2 1 1 2 1 2 2 6 3 5 4 12 15
13 11 11 9 8 4 1 2 1 2 1 3 4 6 8 7 7 7 4 5 5 5 5 4 3 2 2 3 1 1 3 4 3 4 3 2 5 5 5 3 3 0 2
16 13 9 12 8 6 4 3 2 2 2 3 4 6 9 7 6 4 4 2 3 4 5 3 3 2 1 3 1 1 2 3 4 4 3 2 7 5 7 6 7 8 7
16 14 13 14 13 8 7 2 2 3 3 3 4 4 5 8 6 7 4 3 2 1 3 2 2 3 2 2 2 2 2 3 1 3 5 5 7 6 6 7 11 9 6
17 14 14 13 15 12 12 6 4 4 4 0 0 2 3 6 6 7 5 6 6 4 5 3 2 2 3 3 2 3 3 1 3 1 2 4 6 9 9 9 9 6 4
15 14 14 12 12 9 6 8 7 7 4 3 4 6 6 4 5 4 6 4 7 5 5 5 5 5 2 2 1 2 3 3 3 1 1 4 4 5 6 8 7 4 5
13 12 9 9 6 8 8 9 11 12 9 6 4 1 3 3 2 4 5 5 4 5 5 4 6 6 4 4 3 4 2 2 1 3 3 1 1 3 5 6 7 5 4
Wind_Direction
186 168 136 132 126 125 118 117 112 103 94 92 89 90 92 94 97 101 103 106 106 106 108 104 101 97 102 106 103 101 100 104 110 116 115 117 117 123 127 133 127 127 131
144 147 141 138 136 132 127 121 118 110 101 97 94 92 94 95 101 101 104 106 105 107 101 102 103 103 106 104 102 105 108 113 115 117 117 120 128 133 128 132 133 132 132
138 142 142 139 137 133 126 122 120 112 109 104 101 99 100 104 105 108 110 111 108 103 103 104 104 104 105 108 108 101 101 95 122 115 114 91 122 140 132 132 138 133 135
138 139 140 138 136 133 126 126 124 116 114 109 108 105 110 109 114 105 101 103 107 108 102 104 102 98 95 96 97 98 99 90 137 115 113 100 124 135 141 143 143 144 145
136 133 143 141 137 133 134 136 128 121 117 115 115 109 108 110 104 104 111 112 113 110 105 100 94 90 86 70 68 79 104 140 149 124 140 92 115 148 153 156 157 156 155
141 141 141 141 139 137 135 132 131 129 121 120 119 116 117 113 109 113 116 118 120 116 114 109 93 90 77 64 39 14 1 343 298 220 186 161 163 166 163 162 167 161 158
138 142 144 144 144 141 140 140 141 132 129 124 116 115 116 116 115 117 118 118 121 120 122 126 140 77 55 54 45 17 358 340 332 337 218 172 164 181 171 169 170 170 168
139 142 144 145 144 147 142 142 140 137 131 133 129 130 127 125 127 123 122 125 136 145 221 296 329 21 9 20 51 69 49 13 347 358 125 143 174 185 186 164 169 172 176
136 138 129 138 149 153 151 148 142 139 141 138 143 148 145 146 147 145 146 159 193 215 267 295 323 338 334 8 278 191 101 81 185 31 170 150 184 186 181 175 177 178 179
147 140 140 142 146 144 151 152 150 150 152 160 158 157 155 156 148 139 118 316 277 303 305 302 304 305 301 137 270 297 265 157 142 118 311 176 196 190 187 182 182 181 186
143 153 158 153 163 160 147 162 158 161 166 165 159 158 145 78 68 85 146 248 296 305 304 313 308 292 293 236 251 264 292 182 134 134 179 220 198 193 197 187 188 187 192
158 183 173 162 167 165 166 158 160 189 174 150 86 57 72 82 215 28 173 87 30 15 3 317 317 314 24 214 249 272 292 27 66 140 172 238 200 201 206 191 194 196 198
175 173 173 171 170 179 167 162 186 180 129 115 101 100 111 136 113 117 101 78 53 300 261 269 247 246 101 251 232 250 272 289 305 299 190 223 194 209 210 202 197 198 200
172 176 176 177 171 194 156 177 185 163 156 143 157 159 134 107 104 63 50 76 356 255 283 248 22 36 263 189 215 219 250 282 265 224 214 218 201 213 218 212 205 204 203
168 166 176 175 186 174 158 170 194 196 141 160 171 161 132 132 102 148 214 178 235 276 285 308 29 347 329 291 190 208 221 243 263 259 204 222 212 209 216 215 209 208 209
166 153 170 187 178 161 172 186 194 182 152 175 183 161 176 130 157 182 168 245 257 268 291 348 338 324 284 308 103 204 204 231 242 251 296 234 219 214 212 215 215 214 212
153 147 165 170 157 167 168 187 176 154 165 167 196 170 141 144 165 169 130 246 250 8 314 312 289 290 305 273 359 14 204 230 223 230 205 233 245 214 212 210 214 218 218
147 145 150 152 164 163 142 144 160 164 185 160 182 180 170 166 168 167 188 230 62 275 277 229 235 265 229 21 323 316 9 22 321 235 203 138 196 217 246 226 224 225 223
157 154 155 151 166 170 138 163 204 123 159 193 200 193 234 173 164 173 191 215 184 232 241 220 212 202 356 319 246 340 60 67 333 21 89 69 275 184 188 199 227 221 230
163 161 158 161 175 182 158 143 166 62 146 186 224 201 186 213 163 141 157 156 165 169 170 334 114 324 247 260 334 40 82 76 251 63 327 102 279 106 139 215 173 223 200
167 162 170 168 181 158 115 134 115 212 214 199 156 237 188 184 174 139 143 159 179 151 167 192 167 161 316 310 354 37 319 338 12 51 50 353 346 342 112 204 208 40 41
173 180 169 180 171 183 164 174 157 161 53 74 33 67 77 66 74 111 159 170 159 137 155 139 135 161 232 333 168 153 72 319 329 11 23 59 46 2 29 21 46 68 66
180 180 177 178 177 178 182 118 76 62 34 16 41 76 98 100 100 107 99 115 129 77 114 96 97 132 187 306 342 171 108 209 346 335 16 33 28 26 12 69 70 70 75
188 185 176 179 179 185 180 164 134 141 131 145 207 139 122 115 119 130 150 147 132 128 118 91 59 116 142 185 319 353 12 116 185 314 344 20 16 40 55 74 78 72 74
178 188 188 179 174 167 150 130 126 124 137 168 180 169 175 151 115 117 93 37 63 47 42 77 68 56 49 110 73 360 26 27 6 87 326 352 4 353 58 89 87 80 47
180 181 199 166 143 139 134 139 142 148 174 182 203 179 52 66 104 85 92 94 88 76 88 75 75 74 73 56 29 69 100 106 9 51 69 16 31 356 25 67 68 55 51